Location: Sunset Hills
(34.4956°N, 117.2223°W)
Time: 02:17:41
(UTC+00:00)

Cosmos 1745 Rocket - Pass Details

Date: 03 August 2024
Orbit: 952 x 997 km, 83.0° (Epoch: 11 September)

Event Time Altitude Azimuth Distance (km) Brightness Sun altitude
Rises 11:57:41 0° 357° (N) 3,632 7.4 -12.6°
Reaches altitude 10° 12:00:13 10° 0° (N) 2,683 6.7 -12.1°
Maximum altitude 12:06:18 65° 82° (E) 1,044 4.5 -11.0°
Drops below altitude 10° 12:12:22 10° 164° (SSE) 2,682 6.2 -9.9°
Sets 12:14:53 0° 167° (SSE) 3,629 6.8 -9.5°
